[[{"header":{"parameterUnit":"m.s-1","parameterCategory":1,"la1":30.2991,"la2":30.254,"lo1":-89.0895,"lo2":-89.0444,"dx":0.0017,"dy":0.0017,"nx":28,"ny":28,"refTime":"2022-11-29T09:00:00:Z","depth":0,"parameterNumber":2,"parameterNumberName":"U-component_of_WINDS"},"data":[0,0,0,0,0,0,0,0,0,0,0,0,0,0,0,0,0,0,0,0,0,0,0,0,0,0,0,0,0,0,0,0,0,0,0,0,0,0,0,0,0,0,0,0,0,0,0,0,0,0,0,0,0,0,0,0,0,0,0.3874,0.3876,0,0.4068,0.407,0.4072,0.4096,0.4094,0.4092,0.409,0.4296,0.4303,0.431,0,0,0,0,0,0,0,0,0,0,0,0,0,0.3531,0.3538,0.3873,0.3876,0.3878,0.4068,0.407,0.4073,0.4096,0.4094,0.4091,0.4089,0.4294,0.4302,0.4311,0,0,0,0,0,0,0,0,0,0,0,0,0,0.3698,0.354,0.3873,0.3912,0.3918,0.4067,0.407,0.4074,0.4096,0.4093,0.4091,0.4088,0.4291,0.4302,0.4312,0.4438,0,0,0.4346,0.4351,0,0,0,0,0,0,0,0,0.3689,0.3711,0.3904,0.391,0.3916,0.4054,0.4025,0.4196,0.4097,0.4029,0.409,0.4086,0.4219,0.4235,0.4278,0.4448,0.4457,0.4347,0.4353,0.4358,0.4361,0,0,0,0,0,0,0,0.3677,0.3703,0.3951,0.3907,0.3914,0.3924,0.3944,0.4058,0.4138,0.4035,0.4037,0.4059,0.4221,0.4268,0.4283,0.446,0.4346,0.4356,0.4363,0.4367,0.4748,0.4752,0,0,0,0,0,0,0.3657,0.3693,0.3944,0.3956,0.3793,0.3932,0.3955,0.4013,0.4137,0.4152,0.4061,0.4059,0.425,0.4271,0.4291,0.445,0.4358,0.4368,0.4375,0.4745,0.4749,0.4753,0,0,0,0,0,0,0.365,0.3679,0.3937,0.3825,0.3859,0.3941,0.4006,0.4018,0.4065,0.4157,0.4172,0.4093,0.4249,0.4275,0.4402,0.4458,0.4373,0.4383,0.4741,0.4746,0.4751,0.4768,0,0,0,0,0,0,0.364,0.3677,0.3723,0.3826,0.3865,0.4042,0.4009,0.4024,0.4083,0.4082,0.4191,0.4206,0.4249,0.4386,0.4413,0.4471,0.4392,0.4736,0.4743,0.4749,0.4763,0.4773,0.4782,0,0,0,0,0,0.3628,0.372,0.3725,0.3755,0.3923,0.4045,0.4067,0.4112,0.4087,0.4136,0.4196,0.4203,0.4446,0.4398,0.4429,0.4492,0.4733,0.4741,0.4749,0.4758,0.4771,0.4782,0,0,0,0,0,0,0.3622,0.3734,0.3741,0.3869,0.3947,0.4048,0.4111,0.4123,0.4212,0.4208,0.4262,0.4287,0.4412,0.4464,0.4409,0.4623,0.4588,0.4602,0.4584,0.4597,0.4606,0.4593,0.4401,0,0,0,0,0,0.3636,0.3722,0.3816,0.392,0.3959,0.4028,0.4083,0.4111,0.4195,0.4229,0.4298,0.4382,0.4478,0.454,0.4633,0.477,0.4797,0.4828,0.4838,0.4845,0.4858,0.494,0.4957,0.4779,0.4779,0.4779,0,0,0.3665,0.3737,0.3788,0.3921,0.3985,0.4077,0.4056,0.4153,0.4224,0.4245,0.4369,0.4423,0.452,0.4654,0.4716,0.4701,0.4913,0.4855,0.4861,0.487,0.495,0.4967,0.4982,0.4785,0.4784,0.4783,0,0,0.3766,0.3827,0.3923,0.3987,0.4084,0.413,0.4153,0.4254,0.429,0.4415,0.4435,0.452,0.4683,0.4753,0.481,0.4942,0.4953,0.4971,0.5022,0.5101,0.5115,0.5128,0.5179,0.5196,0.4983,0.4983,0.4983,0,0.3791,0.3928,0.3971,0.4069,0.4129,0.415,0.4251,0.4312,0.4435,0.4478,0.4458,0.4666,0.4733,0.4886,0.4919,0.4962,0.4994,0.4959,0.5109,0.5122,0.5135,0.5185,0.5203,0.4984,0.4984,0.4984,0.4984,0,0.3956,0.4051,0.4117,0.4235,0.4302,0.44,0.4462,0.4526,0.4549,0.4598,0.4729,0.481,0.4922,0.4959,0.4983,0.5118,0.5106,0.5097,0.5063,0.5153,0.5201,0.522,0.4987,0.4986,0.4986,0.4985,0,0,0.406,0.4201,0.4225,0.4281,0.439,0.4466,0.4568,0.4676,0.4732,0.4816,0.4906,0.5045,0.5039,0.5103,0.5135,0.5204,0.5309,0.5188,0.5191,0.5211,0.5469,0.5477,0.5498,0.5316,0.532,0.5323,0.5462,0,0.4177,0.4355,0.4399,0.4553,0.4644,0.4668,0.4757,0.4836,0.4886,0.4973,0.5029,0.5128,0.5109,0.515,0.5218,0.5281,0.5362,0.5272,0.5405,0.5409,0.5383,0.5523,0.5531,0.5658,0.5481,0.5484,0.5486,0,0.4336,0.4425,0.4588,0.4689,0.4729,0.4808,0.4913,0.4995,0.5087,0.5119,0.5192,0.5218,0.533,0.5288,0.5445,0.5383,0.544,0.548,0.5486,0.5503,0.5455,0.5548,0.57,0.572,0.5515,0.5513,0.5511,0,0.4401,0.456,0.468,0.4726,0.4846,0.4902,0.4956,0.5044,0.5108,0.5201,0.5244,0.5348,0.5407,0.5489,0.5545,0.5509,0.5699,0.5661,0.5733,0.5732,0.5774,0.5771,0.5941,0.5805,0.5804,0.5804,0.5803,0,0.4529,0.4629,0.4711,0.4785,0.4899,0.495,0.5063,0.5117,0.5197,0.5285,0.5311,0.5394,0.546,0.5554,0.5598,0.5724,0.5749,0.5781,0.5793,0.5781,0.5778,0.5822,0.5816,0.5809,0.5808,0.5807,0.5806,0,0.4622,0.4679,0.4812,0.4915,0.4944,0.5024,0.5115,0.519,0.524,0.5352,0.5381,0.5462,0.5573,0.5636,0.5776,0.5806,0.5948,0.5953,0.5917,0.5922,0.5992,0.5986,0.6199,0.6232,0.607,0.6071,0.6072,0,0.4701,0.4779,0.4891,0.4951,0.5005,0.51,0.5166,0.522,0.5288,0.5401,0.5463,0.5576,0.5669,0.5846,0.592,0.6029,0.6039,0.6106,0.6056,0.6043,0.6046,0.6042,0.6052,0.6116,0.6118,0.6119,0.612,0,0.4838,0.4863,0.4955,0.5058,0.5135,0.5219,0.5303,0.5351,0.542,0.5496,0.5609,0.5681,0.5825,0.5938,0.6053,0.6112,0.613,0.6135,0.6158,0.6149,0.6126,0.6144,0.5945,0.613,0.6129,0.6129,0.6128,0.6128,0.493,0.5001,0.5092,0.5195,0.5264,0.5342,0.5419,0.5479,0.5574,0.5694,0.572,0.5842,0.5937,0.6093,0.6155,0.6254,0.6242,0.6274,0.6283,0.6291,0.6296,0.6107,0.6274,0.6274,0.6274,0.6274,0.6273,0,0.5072,0.5131,0.5225,0.5342,0.5424,0.5429,0.5524,0.5593,0.5698,0.5784,0.5875,0.6009,0.612,0.6202,0.6317,0.638,0.6391,0.6409,0.6407,0.6421,0.6298,0.6268,0.6398,0.6398,0.6398,0.6398,0.6398,0.6398,0.5155,0.5279,0.5315,0.5475,0.5535,0.5652,0.5706,0.5781,0.585,0.5997,0.6088,0.614,0.6227,0.6349,0.6453,0.6474,0.6517,0.6535,0.6558,0.6442,0.6429,0.6416,0.6389,0.6542,0.6543,0.6674,0.6675,0.6676]},{"header":{"parameterUnit":"m.s-1","parameterCategory":1,"la1":30.2991,"la2":30.254,"lo1":-89.0895,"lo2":-89.0444,"dx":0.0017,"dy":0.0017,"nx":28,"ny":28,"refTime":"2022-11-29T09:00:00:Z","depth":0,"parameterNumber":3,"parameterNumberName":"V-component_of_WINDS"},"data":[0,0,0,0,0,0,0,0,0,0,0,0,0,0,0,0,0,0,0,0,0,0,0,0,0,0,0,0,0,0,0,0,0,0,0,0,0,0,0,0,0,0,0,0,0,0,0,0,0,0,0,0,0,0,0,0,0,0,-5.1972,-5.197,0,-5.1806,-5.1804,-5.1803,-5.1794,-5.1796,-5.1798,-5.18,-5.1614,-5.1608,-5.1601,0,0,0,0,0,0,0,0,0,0,0,0,0,-5.2265,-5.226,-5.1972,-5.197,-5.1968,-5.1807,-5.1804,-5.1802,-5.1794,-5.1796,-5.1799,-5.1801,-5.1616,-5.1608,-5.16,0,0,0,0,0,0,0,0,0,0,0,0,0,-5.2122,-5.2258,-5.1972,-5.1945,-5.1941,-5.1807,-5.1804,-5.1801,-5.1793,-5.1796,-5.1799,-5.1802,-5.1619,-5.1609,-5.1599,-5.1477,0,0,-5.1568,-5.1564,0,0,0,0,0,0,0,0,-5.213,-5.2111,-5.1951,-5.1946,-5.1942,-5.1824,-5.184,-5.1692,-5.1793,-5.1849,-5.18,-5.1803,-5.1681,-5.1666,-5.1628,-5.1468,-5.146,-5.1567,-5.1561,-5.1557,-5.1554,0,0,0,0,0,0,0,-5.214,-5.2118,-5.1906,-5.1948,-5.1943,-5.1935,-5.1918,-5.1812,-5.1749,-5.1844,-5.1843,-5.1825,-5.1679,-5.1637,-5.1623,-5.1458,-5.1567,-5.1558,-5.1552,-5.1548,-5.1185,-5.1182,0,0,0,0,0,0,-5.2158,-5.2127,-5.1911,-5.1901,-5.2046,-5.1928,-5.1909,-5.1859,-5.1751,-5.1738,-5.1822,-5.1825,-5.1653,-5.1635,-5.1616,-5.1463,-5.1557,-5.1547,-5.1541,-5.1188,-5.1184,-5.118,0,0,0,0,0,0,-5.2164,-5.2139,-5.1918,-5.2014,-5.1985,-5.192,-5.1863,-5.1854,-5.1813,-5.1735,-5.1722,-5.1793,-5.1655,-5.1631,-5.1512,-5.1456,-5.1543,-5.1533,-5.1193,-5.1187,-5.1182,-5.1157,0,0,0,0,0,0,-5.2172,-5.2141,-5.2098,-5.2013,-5.198,-5.1821,-5.186,-5.1848,-5.1797,-5.1799,-5.1703,-5.169,-5.1655,-5.1527,-5.1502,-5.1444,-5.1525,-5.1197,-5.119,-5.1184,-5.1162,-5.1151,-5.1142,0,0,0,0,0,-5.2183,-5.2094,-5.2095,-5.2069,-5.1925,-5.1818,-5.1798,-5.1765,-5.1793,-5.1746,-5.1695,-5.1693,-5.1468,-5.1515,-5.1486,-5.1425,-5.12,-5.1192,-5.1184,-5.1167,-5.1154,-5.1142,0,0,0,0,0,0,-5.2168,-5.2083,-5.2083,-5.1966,-5.19,-5.1817,-5.1757,-5.1753,-5.1673,-5.1677,-5.1635,-5.1613,-5.1494,-5.1448,-5.1502,-5.1299,-5.1336,-5.1322,-5.1333,-5.1319,-5.131,-5.1321,-5.1517,0,0,0,0,0,-5.2153,-5.2078,-5.2005,-5.1908,-5.1876,-5.1822,-5.1774,-5.1755,-5.1682,-5.1652,-5.1593,-5.1519,-5.1431,-5.1373,-5.1288,-5.1157,-5.1133,-5.11,-5.109,-5.1082,-5.1069,-5.0991,-5.0974,-5.1154,-5.1154,-5.1154,0,0,-5.2117,-5.2061,-5.2015,-5.1904,-5.1851,-5.1768,-5.1798,-5.1711,-5.1647,-5.1637,-5.1522,-5.1476,-5.1389,-5.1263,-5.1204,-5.122,-5.1014,-5.1072,-5.1066,-5.1057,-5.0981,-5.0964,-5.0949,-5.1149,-5.115,-5.1151,0,0,-5.201,-5.1963,-5.1875,-5.1822,-5.1743,-5.1708,-5.1687,-5.1605,-5.1575,-5.146,-5.145,-5.1372,-5.1223,-5.116,-5.1109,-5.0978,-5.0971,-5.0952,-5.0897,-5.0821,-5.0807,-5.0794,-5.0742,-5.0725,-5.094,-5.094,-5.094,0,-5.1973,-5.1855,-5.1829,-5.1742,-5.169,-5.1684,-5.1591,-5.1539,-5.1434,-5.1396,-5.1418,-5.1229,-5.1171,-5.1028,-5.0996,-5.0957,-5.0926,-5.096,-5.0813,-5.0799,-5.0787,-5.0736,-5.0718,-5.0937,-5.0938,-5.0938,-5.0938,0,-5.1812,-5.173,-5.1668,-5.1572,-5.1514,-5.1424,-5.1379,-5.1323,-5.1308,-5.127,-5.1149,-5.108,-5.0979,-5.0944,-5.0928,-5.0797,-5.0809,-5.0823,-5.0859,-5.0768,-5.072,-5.0701,-5.0934,-5.0935,-5.0936,-5.0936,0,0,-5.1687,-5.1581,-5.1557,-5.1512,-5.1425,-5.1357,-5.1266,-5.1173,-5.1122,-5.105,-5.0968,-5.0842,-5.0854,-5.0795,-5.0772,-5.0707,-5.0601,-5.0727,-5.0724,-5.0701,-5.0447,-5.0434,-5.0413,-5.0599,-5.0595,-5.0592,-5.0453,0,-5.1567,-5.1409,-5.1383,-5.1242,-5.1162,-5.1155,-5.1074,-5.1008,-5.0969,-5.0891,-5.0847,-5.0757,-5.0781,-5.0745,-5.0681,-5.0628,-5.0549,-5.0638,-5.0514,-5.051,-5.0532,-5.0389,-5.0375,-5.0247,-5.0434,-5.0431,-5.0429,0,-5.1404,-5.1333,-5.1185,-5.1107,-5.1072,-5.1001,-5.0911,-5.084,-5.0763,-5.0739,-5.0675,-5.0659,-5.0557,-5.0602,-5.0458,-5.0519,-5.0467,-5.0433,-5.0427,-5.0409,-5.046,-5.0362,-5.0206,-5.0185,-5.04,-5.0402,-5.0404,0,-5.1322,-5.1188,-5.1082,-5.1045,-5.0952,-5.0901,-5.0859,-5.0786,-5.0731,-5.0652,-5.0614,-5.0523,-5.047,-5.0397,-5.0354,-5.0392,-5.0211,-5.0253,-5.0182,-5.0182,-5.0139,-5.0142,-4.9967,-5.0115,-5.0115,-5.0116,-5.0116,0,-5.1187,-5.1095,-5.1044,-5.0978,-5.0874,-5.0843,-5.0739,-5.0697,-5.0632,-5.0553,-5.0541,-5.0465,-5.0417,-5.0332,-5.0298,-5.018,-5.0158,-5.0131,-5.0121,-5.0129,-5.0131,-5.009,-5.0095,-5.011,-5.0112,-5.0113,-5.0114,0,-5.1075,-5.1038,-5.0921,-5.0845,-5.0823,-5.0749,-5.068,-5.0612,-5.0576,-5.0475,-5.045,-5.0388,-5.0289,-5.0241,-5.0116,-5.0093,-4.9958,-4.9957,-4.9985,-4.998,-4.991,-4.9915,-4.9698,-4.9665,-4.984,-4.9838,-4.9837,0,-5.0989,-5.0919,-5.0836,-5.0785,-5.0744,-5.0661,-5.0606,-5.0572,-5.0514,-5.0422,-5.0363,-5.0266,-5.0184,-5.0025,-4.9965,-4.9869,-4.9862,-4.9793,-4.9846,-4.9855,-4.9854,-4.9856,-4.9846,-4.9781,-4.9779,-4.9778,-4.9777,0,-5.0838,-5.0823,-5.0748,-5.0664,-5.06,-5.0532,-5.0464,-5.0421,-5.0376,-5.031,-5.0211,-5.0149,-5.0024,-4.9923,-4.9823,-4.9773,-4.9763,-4.9761,-4.9738,-4.9742,-4.9759,-4.9743,-4.9953,-4.9765,-4.9766,-4.9767,-4.9767,-4.9768,-5.0732,-5.0668,-5.0601,-5.0515,-5.0462,-5.0399,-5.0331,-5.0287,-5.0207,-5.0105,-5.0089,-4.9983,-4.9904,-4.9769,-4.9716,-4.9628,-4.9643,-4.9611,-4.9602,-4.9593,-4.9587,-4.9779,-4.961,-4.961,-4.961,-4.9611,-4.9611,0,-5.0576,-5.0533,-5.0455,-5.0363,-5.0294,-5.0301,-5.0226,-5.0166,-5.0074,-5.0005,-4.9927,-4.9811,-4.9714,-4.9648,-4.9548,-4.9489,-4.9482,-4.9463,-4.9464,-4.9452,-4.9582,-4.9609,-4.9471,-4.9471,-4.9471,-4.9471,-4.9471,-4.9471,-5.0486,-5.0378,-5.0355,-5.0218,-5.0174,-5.0074,-5.003,-4.9969,-4.9914,-4.9787,-4.9708,-4.9669,-4.9598,-4.9493,-4.9402,-4.9385,-4.9345,-4.9325,-4.9307,-4.9429,-4.9443,-4.9457,-4.9482,-4.9319,-4.9319,-4.9183,-4.9182,-4.9181]}]]